"1997/01/01", 7.6, 8.0, 7.2
"1997/01/02", 7.7, 8.7, 7.4
"1997/01/03", 7.3, 7.8, 6.5
"1997/01/04", 6.5, 6.9, 5.9
"1997/01/05", 6.4, 6.9, 5.9
"1997/01/06", 6.5, 7.2, 5.9
"1997/01/07", 6.4, 6.7, 6.0
"1997/01/08", 6.1, 6.4, 5.5
"1997/01/09", 5.9, 6.6, 5.0
"1997/01/10", 5.9, 6.3, 5.5
"1997/01/11", 5.8, 6.7, 5.3
"1997/01/12", 5.8, 6.2, 5.3
"1997/01/13", 5.7, 6.2, 5.1
"1997/01/14", 5.8, 6.3, 5.2
"1997/01/15", 5.8, 6.5, 5.3
"1997/01/16", 5.4, 5.7, 4.9
"1997/01/17", 5.5, 6.4, 4.7
"1997/01/18", 5.7, 6.2, 5.3
"1997/01/19", 5.8, 6.5, 5.1
"1997/01/20", 5.7, 6.2, 5.4
"1997/01/21", 5.8, 6.5, 5.4
"1997/01/22", 4.5, 5.7, 3.7
"1997/01/23", 4.5, 5.2, 3.4
"1997/01/24", 4.6, 4.9, 4.4
"1997/01/25", 4.6, 5.5, 4.2
"1997/01/26", 4.5, 5.4, 4.0
"1997/01/27", 4.3, 4.9, 3.9
"1997/01/28", 4.6, 5.5, 4.1
"1997/01/29", 4.8, 5.5, 4.4
"1997/01/30", 4.5, 4.9, 4.0
"1997/01/31", 4.5, 5.2, 3.8
"1997/02/01", 4.7, 5.2, 4.2
"1997/02/02", 4.9, 5.6, 4.2
"1997/02/03", 5.0, 5.3, 4.7
"1997/02/04"," *"," *"," *"
"1997/02/05"," *"," *"," *"
"1997/02/06"," *"," *"," *"
"1997/02/07"," *"," *"," *"
"1997/02/08"," *"," *"," *"
"1997/02/09"," *"," *"," *"
"1997/02/10"," *"," *"," *"
"1997/02/11"," *"," *"," *"
"1997/02/12"," *"," *"," *"
"1997/02/13", 5.3, 6.0, 4.8
"1997/02/14", 5.4, 6.0, 5.0
"1997/02/15", 5.6, 6.1, 5.1
"1997/02/16", 5.8, 6.1, 5.5
"1997/02/17", 5.7, 6.4, 4.9
"1997/02/18", 5.9, 6.7, 5.6
"1997/02/19", 5.6, 6.1, 4.8
"1997/02/20", 5.3, 5.8, 4.5
"1997/02/21", 5.4, 6.1, 4.8
"1997/02/22", 4.2, 4.9, 3.1
"1997/02/23", 4.4, 4.8, 4.1
"1997/02/24", 4.8, 5.6, 3.8
"1997/02/25", 5.2, 6.0, 4.8
"1997/02/26", 5.9, 7.3, 5.1
"1997/02/27", 6.6, 8.0, 6.0
"1997/02/28", 6.6, 7.6, 6.1
"1997/03/01", 7.7, 9.1, 6.5
"1997/03/02", 7.2, 7.5, 6.9
"1997/03/03", 6.7, 6.9, 6.5
"1997/03/04", 6.6, 7.2, 6.0
"1997/03/05", 7.2, 8.3, 6.5
"1997/03/06", 7.4, 8.0, 6.8
"1997/03/07", 8.5, 9.8, 7.7
"1997/03/08", 8.8, 9.5, 8.3
"1997/03/09", 8.5, 9.1, 8.0
"1997/03/10", 8.7, 9.8, 8.1
"1997/03/11", 9.0, 9.8, 8.4
"1997/03/12", 9.6,10.5, 9.1
"1997/03/13", 9.2, 9.9, 8.8
"1997/03/14",10.2,11.9, 9.0
"1997/03/15", 9.9,10.5, 9.3
"1997/03/16", 8.7, 9.3, 8.3
"1997/03/17", 8.7, 9.3, 8.2
"1997/03/18", 9.0, 9.9, 8.4
"1997/03/19", 9.1, 9.3, 8.9
"1997/03/20", 9.2,10.0, 8.7
"1997/03/21", 9.6,10.4, 8.7
"1997/03/22", 9.6, 9.9, 9.4
"1997/03/23", 9.2, 9.4, 9.0
"1997/03/24", 9.1,10.0, 8.6
"1997/03/25", 9.2, 9.8, 8.7
"1997/03/26", 9.9,10.8, 9.2
"1997/03/27",10.0,10.1, 9.8
"1997/03/28",10.3,12.1, 9.4
"1997/03/29",10.9,11.5,10.4
"1997/03/30",11.5,12.2,11.1
"1997/03/31",11.2,11.7,10.8
"1997/04/01",11.7,13.1,10.8
"1997/04/02",11.9,12.1,11.6
"1997/04/03",11.7,11.8,11.6
"1997/04/04",12.5,13.5,11.8
"1997/04/05",12.6,12.8,12.3
"1997/04/06",12.5,12.7,12.3
"1997/04/07",12.5,12.8,12.3
"1997/04/08",13.2,14.6,12.3
"1997/04/09",14.1,16.3,13.2
"1997/04/10",14.0,14.9,13.5
"1997/04/11",13.8,14.5,13.1
"1997/04/12",13.5,14.6,12.7
"1997/04/13",14.0,15.1,13.4
"1997/04/14",14.4,15.5,13.8
"1997/04/15",13.9,14.2,13.5
"1997/04/16",13.4,14.4,12.9
"1997/04/17",13.7,14.5,13.2
"1997/04/18",14.3,15.5,13.2
"1997/04/19",14.3,14.7,14.1
"1997/04/20",14.3,15.1,13.8
"1997/04/21",14.5,14.9,14.1
"1997/04/22",15.0,15.8,14.5
"1997/04/23",14.4,15.0,13.8
"1997/04/24",15.1,18.0,13.4
"1997/04/25",15.3,17.1,14.3
"1997/04/26",15.8,18.8,14.2
"1997/04/27",15.7,16.4,15.3
"1997/04/28",15.9,16.6,15.5
"1997/04/29",16.9,19.0,15.5
"1997/04/30",16.2,16.9,15.5
"1997/05/01",16.9,18.1,16.1
"1997/05/02",17.8,19.1,17.2
"1997/05/03",17.7,18.2,17.3
"1997/05/04",17.2,17.5,17.0
"1997/05/05",18.0,19.2,17.2
"1997/05/06",18.2,18.8,17.9
"1997/05/07",18.8,19.5,18.2
"1997/05/08",19.6,20.4,18.6
"1997/05/09",19.0,19.8,18.4
"1997/05/10",18.4,18.7,18.1
"1997/05/11",18.5,18.9,18.1
"1997/05/12",18.9,19.3,18.5
"1997/05/13",19.0,19.8,18.5
"1997/05/14",18.7,18.9,18.6
"1997/05/15",18.8,18.9,18.6
"1997/05/16",19.5,22.1,18.8
"1997/05/17",19.9,20.7,19.2
"1997/05/18",20.1,20.8,19.2
"1997/05/19",20.1,20.5,19.6
"1997/05/20",19.1,19.5,18.7
"1997/05/21",19.4,20.8,18.6
"1997/05/22",18.7,19.5,18.3
"1997/05/23",18.3,18.5,18.0
"1997/05/24",18.1,18.3,17.9
"1997/05/25",18.7,19.8,18.0
"1997/05/26",19.1,20.4,18.3
"1997/05/27",19.1,20.1,18.3
"1997/05/28",19.6,21.0,18.8
"1997/05/29",19.8,20.3,19.2
"1997/05/30",20.5,21.8,19.6
"1997/05/31",20.4,21.2,20.0
"1997/06/01",21.5,23.4,20.3
"1997/06/02",21.8,22.3,21.0
"1997/06/03",21.9,22.4,21.4
"1997/06/04",21.5,22.0,21.2
"1997/06/05",21.9,24.5,20.9
"1997/06/06",21.6,22.4,21.0
"1997/06/07",22.0,25.4,20.5
"1997/06/08",21.2,21.7,20.5
"1997/06/09",20.3,20.5,20.2
"1997/06/10",21.4,23.6,20.1
"1997/06/11",21.3,21.7,20.8
"1997/06/12",21.0,21.7,20.5
"1997/06/13",21.6,22.9,20.7
"1997/06/14",21.7,22.6,21.1
"1997/06/15",22.4,23.9,21.6
"1997/06/16",22.1,22.6,21.6
"1997/06/17",21.6,21.9,21.3
"1997/06/18",21.5,21.7,21.3
"1997/06/19",21.9,23.6,21.2
"1997/06/20",21.7,22.1,21.5
"1997/06/21",22.2,23.4,21.4
"1997/06/22",22.5,23.9,21.8
"1997/06/23",22.4,22.6,22.2
"1997/06/24",23.4,25.5,22.0
"1997/06/25",23.9,25.9,22.3
"1997/06/26",23.7,24.4,23.1
"1997/06/27",25.0,26.4,23.6
"1997/06/28",25.2,25.6,24.4
"1997/06/29",24.8,25.9,24.4
"1997/06/30",25.0,27.1,23.7
"1997/07/01",25.2,26.3,24.3
"1997/07/02",25.3,25.8,24.8
"1997/07/03",26.4,28.4,25.0
"1997/07/04",26.1,27.2,25.6
"1997/07/05",26.1,27.1,25.4
"1997/07/06",26.6,27.5,25.6
"1997/07/07",27.2,28.6,26.6
"1997/07/08",26.9,27.8,26.1
"1997/07/09",27.1,27.9,26.4
"1997/07/10",25.9,26.8,25.3
"1997/07/11",25.0,25.3,24.8
"1997/07/12",24.6,24.8,24.3
"1997/07/13",24.5,25.1,24.1
"1997/07/14",25.2,27.4,24.3
"1997/07/15",26.3,28.3,24.9
"1997/07/16",26.5,28.4,25.7
"1997/07/17",25.6,26.8,24.8
"1997/07/18",25.0,25.7,24.5
"1997/07/19",25.5,27.8,24.5
"1997/07/20",25.6,26.7,24.8
"1997/07/21",26.0,27.4,24.9
"1997/07/22",26.1,27.4,25.3
"1997/07/23",26.1,26.6,25.8
"1997/07/24",26.4,27.6,25.6
"1997/07/25",26.8,27.8,26.0
"1997/07/26",26.5,26.9,26.3
"1997/07/27",27.0,28.2,26.1
"1997/07/28",27.4,27.6,27.1
"1997/07/29",27.3,27.9,26.9
"1997/07/30",26.8,27.2,26.5
"1997/07/31",27.2,28.1,26.2
"1997/08/01",26.8,27.3,26.6
"1997/08/02",28.2,31.3,26.7
"1997/08/03",28.6,29.8,27.6
"1997/08/04",28.0,29.9,27.4
"1997/08/05",27.4,28.6,26.8
"1997/08/06",27.4,28.2,26.6
"1997/08/07",28.1,30.1,26.9
"1997/08/08",27.6,28.0,27.2
"1997/08/09",27.5,28.5,26.7
"1997/08/10",27.6,28.9,26.8
"1997/08/11",27.7,28.1,27.2
"1997/08/12",27.7,28.4,27.2
"1997/08/13",27.5,28.1,27.1
"1997/08/14",26.6,27.2,26.0
"1997/08/15",25.4,26.0,24.5
"1997/08/16",24.4,24.7,24.0
"1997/08/17",24.1,24.6,23.9
"1997/08/18",24.8,26.8,23.5
"1997/08/19",25.1,25.7,24.6
"1997/08/20",25.0,25.3,24.7
"1997/08/21",25.7,27.0,24.5
"1997/08/22"," *"," *"," *"
"1997/08/23",27.4,28.8,26.3
"1997/08/24",27.9,29.8,26.7
"1997/08/25",27.0,27.8,26.4
"1997/08/26",26.0,26.3,25.6
"1997/08/27",26.5,28.2,25.4
"1997/08/28",26.6,28.0,25.9
"1997/08/29",26.7,27.7,25.8
"1997/08/30",27.4,29.5,26.2
"1997/08/31",27.0,27.6,26.5
"1997/09/01",27.1,27.8,26.5
"1997/09/02",27.2,27.5,26.9
"1997/09/03",27.3,27.9,27.0
"1997/09/04",27.2,27.8,26.8
"1997/09/05",26.4,26.8,26.0
"1997/09/06",26.4,27.3,25.6
"1997/09/07",26.4,26.9,26.0
"1997/09/08",26.3,26.9,25.9
"1997/09/09",25.6,25.9,25.5
"1997/09/10",26.0,27.7,25.4
"1997/09/11",25.9,26.5,25.5
"1997/09/12",25.6,25.9,25.1
"1997/09/13",24.4,25.1,23.7
"1997/09/14",23.7,24.0,22.9
"1997/09/15",22.8,23.5,22.4
"1997/09/16",21.9,22.5,21.5
"1997/09/17",22.1,23.0,20.8
"1997/09/18",22.6,22.9,22.4
"1997/09/19",22.6,23.1,22.4
"1997/09/20",22.5,22.9,22.2
"1997/09/21",21.9,22.2,21.7
"1997/09/22",21.8,22.2,21.3
"1997/09/23",21.3,21.7,20.9
"1997/09/24",20.9,21.4,20.5
"1997/09/25",20.5,20.8,20.2
"1997/09/26",20.2,20.5,19.9
"1997/09/27",20.1,20.3,19.8
"1997/09/28",20.3,21.5,19.2
"1997/09/29",20.6,21.9,19.6
"1997/09/30",20.6,22.3,19.6
"1997/10/01",20.3,21.1,19.8
"1997/10/02",20.1,20.5,19.5
"1997/10/03",20.2,20.8,19.7
"1997/10/04",20.3,20.8,19.9
"1997/10/05",20.5,21.1,19.8
"1997/10/06",20.4,21.0,20.0
"1997/10/07",20.0,20.2,19.9
"1997/10/08",19.8,20.2,18.7
"1997/10/09",19.5,20.1,18.9
"1997/10/10",19.6,20.2,19.3
"1997/10/11",19.7,20.7,19.1
"1997/10/12",19.3,20.5,18.7
"1997/10/13",19.3,20.6,18.4
"1997/10/14",18.9,19.3,18.6
"1997/10/15",19.3,20.9,18.5
"1997/10/16",18.9,20.1,18.0
"1997/10/17",18.6,18.8,18.3
"1997/10/18",18.9,19.7,18.2
"1997/10/19",18.8,19.3,18.5
"1997/10/20",18.7,19.3,18.1
"1997/10/21"," *"," *"," *"
"1997/10/22",18.5,18.8,18.1
"1997/10/23",18.9,20.2,18.0
"1997/10/24",19.2,20.0,18.5
"1997/10/25",19.1,19.7,18.8
"1997/10/26",18.7,19.3,18.2
"1997/10/27",17.9,18.7,16.4
"1997/10/28",17.5,18.8,15.8
"1997/10/29",17.1,17.6,16.8
"1997/10/30",17.0,18.2,16.5
"1997/10/31",16.6,17.1,16.3
"1997/11/01",16.0,16.4,15.4
"1997/11/02",15.8,16.9,14.9
"1997/11/03",16.2,17.2,15.5
"1997/11/04",16.3,16.7,16.0
"1997/11/05",16.3,17.0,15.8
"1997/11/06",16.3,17.6,15.4
"1997/11/07",16.0,17.1,15.4
"1997/11/08",15.3,15.6,15.0
"1997/11/09",15.2,16.0,14.7
"1997/11/10",15.0,15.7,14.6
"1997/11/11",14.9,16.0,14.3
"1997/11/12",15.2,15.9,14.5
"1997/11/13",15.0,15.3,14.6
"1997/11/14",14.5,14.9,14.3
"1997/11/15",14.6,15.0,14.3
"1997/11/16",14.7,15.0,14.5
"1997/11/17",14.5,14.6,14.3
"1997/11/18",14.2,14.9,13.2
"1997/11/19",14.0,15.2,13.4
"1997/11/20",13.4,13.7,13.0
"1997/11/21",13.1,13.3,12.7
"1997/11/22",13.5,13.8,13.3
"1997/11/23",13.5,13.7,13.1
"1997/11/24",13.3,14.3,12.5
"1997/11/25",13.2,13.9,12.7
"1997/11/26",13.0,13.6,12.8
"1997/11/27",14.3,15.5,13.6
"1997/11/28",13.9,14.2,13.6
"1997/11/29",13.1,13.6,12.7
"1997/11/30",13.8,14.2,13.4
"1997/12/01",13.0,13.6,12.1
"1997/12/02",12.3,12.6,11.1
"1997/12/03",10.7,11.9, 9.0
"1997/12/04",10.2,11.0, 8.3
"1997/12/05",10.2,10.5, 9.8
"1997/12/06",10.3,10.7, 9.8
"1997/12/07",10.7,11.1,10.3
"1997/12/08",11.0,11.2,10.8
"1997/12/09",11.1,11.3,10.9
"1997/12/10",10.9,11.3,10.3
"1997/12/11",10.3,11.1, 9.6
"1997/12/12", 9.6, 9.8, 9.5
"1997/12/13", 9.4, 9.8, 9.0
"1997/12/14", 8.8, 9.1, 8.3
"1997/12/15", 8.7, 8.9, 8.4
"1997/12/16", 8.9, 9.8, 8.1
"1997/12/17", 8.6, 9.1, 8.4
"1997/12/18", 8.6, 8.9, 8.0
"1997/12/19", 8.9, 9.7, 8.3
"1997/12/20", 8.8, 9.2, 8.5
"1997/12/21", 8.9, 9.6, 8.6
"1997/12/22", 8.3, 8.6, 8.1
"1997/12/23", 7.8, 8.1, 7.6
"1997/12/24", 7.3, 7.7, 7.1
"1997/12/25", 7.1, 7.2, 6.8
"1997/12/26", 7.0, 7.2, 6.8
"1997/12/27", 7.3, 7.5, 7.1
"1997/12/28", 7.4, 8.1, 6.8
"1997/12/29", 7.3, 8.0, 7.0
"1997/12/30", 7.1, 7.3, 7.0
"1997/12/31", 7.1, 7.6, 6.2
